Presure
103 102 151 105 115 169 122 142 143 124 159 128 95 89 138 132 132 142 151 130 136 135 149 105 146 150 154 108 96 102 128 130 93 115 154 135 153 190 187 179 174 173 174
103 161 94 104 141 175 148 144 149 96 150 151 109 145 136 149 155 149 149 146 153 144 94 97 154 90 90 101 122 128 127 103 138 123 112 143 142 143 168 181 192 192 193
123 99 140 102 101 96 153 152 151 137 158 133 105 139 140 156 131 148 153 150 95 131 95 138 143 83 122 96 114 106 162 122 98 92 92 120 150 173 166 166 173 158 188
97 104 145 119 94 124 96 113 141 126 158 160 111 149 129 91 149 147 141 149 154 151 88 131 125 135 122 133 126 153 96 144 164 166 106 92 89 90 180 134 199 168 136
96 97 99 98 97 103 154 121 138 142 106 160 119 146 104 140 137 151 147 150 153 151 134 137 144 149 156 120 149 108 91 144 94 108 90 156 140 95 116 89 90 112 166
124 95 97 97 98 132 98 97 145 148 142 97 157 138 108 144 133 152 157 149 148 155 151 151 149 143 76 89 85 92 93 125 157 92 81 88 148 148 141 167 171 91 151
117 100 96 95 116 100 103 100 93 135 148 138 148 141 146 152 143 146 150 168 142 157 155 99 149 146 149 142 139 130 95 107 93 101 129 89 103 122 89 90 141 145 151
97 99 100 98 98 102 101 100 142 113 97 93 153 141 137 166 157 138 133 151 166 152 157 158 157 151 135 94 148 148 136 144 141 123 86 113 116 141 143 90 123 150 86
116 108 102 100 96 97 99 150 106 140 127 138 97 154 154 140 155 142 149 106 152 151 157 138 151 150 143 125 107 149 150 132 144 104 88 90 101 145 133 143 138 142 143
147 103 102 95 98 98 95 97 98 105 107 149 102 95 94 159 146 148 151 134 156 161 160 122 95 98 136 140 138 147 148 145 144 141 128 107 136 131 82 90 132 114 128
101 144 140 106 95 147 98 98 95 97 104 138 117 117 94 148 159 161 161 167 89 154 156 111 146 151 142 138 111 126 128 136 84 130 80 84 87 106 94 116 141 143 82
99 123 100 141 141 97 97 114 95 96 101 122 148 115 89 113 166 91 166 137 153 124 165 135 133 133 136 123 115 134 141 134 126 126 117 90 131 104 154 145 143 135 111
194 141 152 148 96 96 99 89 99 95 145 144 159 155 116 139 94 150 136 102 145 135 137 135 151 115 128 121 133 123 85 128 129 135 127 125 135 86 129 128 117 85 138
94 97 106 91 102 135 145 113 93 154 147 153 170 156 99 130 133 133 161 148 146 168 206 135 142 165 142 124 132 122 130 127 133 162 151 83 153 145 87 128 128 87 121
137 122 91 127 103 100 99 97 139 138 113 124 108 95 213 201 150 205 124 200 95 180 133 225 205 182 124 187 200 160 227 155 160 113 137 100 80 143 120 145 120 152 128
162 162 181 168 134 135 165 162 155 157 177 167 189 213 161 89 111 173 192 191 221 161 146 159 167 159 148 143 152 150 142 144 99 109 99 108 84 83 114 111 79 94 94
99 79 87 84 93 161 155 159 160 164 185 164 118 111 96 198 181 106 153 164 153 149 145 146 155 144 141 137 147 230 104 136 83 96 100 72 78 137 137 99 96 88 97
100 97 89 98 81 84 80 82 91 87 88 89 97 133 204 217 91 158 142 136 139 140 139 141 146 147 119 89 140 139 83 84 76 83 87 92 88 93 91 89 89 92 177
146 75 122 126 80 81 120 86 85 115 86 99 153 152 179 145 127 128 129 134 137 139 121 124 142 190 275 212 78 71 85 116 81 88 90 90 89 88 95 96 96 135 266
135 138 140 145 143 144 146 202 120 167 86 165 131 115 91 125 168 190 96 101 177 232 295 151 138 64 74 175 77 143 89 88 89 85 92 94 94 95 207 222 219 219 219
127 131 134 151 138 143 143 187 142 151 142 140 129 125 85 146 217 211 83 90 77 76 90 193 255 248 245 242 83 93 96 85 90 140 97 95 109 273 282 279 293 308 303
180 190 195 128 195 149 155 137 134 137 148 194 103 201 207 212 268 268 268 75 78 80 82 105 290 140 139 278 272 260 140 267 140 265 273 274 272 258 255 259 266 269 290
189 186 190 191 205 198 196 187 184 193 195 196 194 188 264 264 255 245 275 237 298 279 271 229 201 242 251 255 254 258 262 271 247 264 258 261 261 245 229 235 259 255 265
180 186 197 199 182 182 188 189 193 194 194 184 191 282 294 314 303 191 226 211 186 253 263 256 261 226 251 264 258 247 239 240 240 249 253 244 256 258 263 220 214 251 238
169 194 172 174 172 178 179 176 187 185 181 229 261 254 253 206 155 164 197 242 256 231 235 235 233 233 232 231 232 237 228 222 230 228 238 239 228 237 251 245 262 273 258
168 170 180 170 176 191 191 180 182 204 255 261 249 154 250 163 239 225 225 238 214 222 230 231 237 238 236 234 219 211 210 213 211 231 238 212 237 247 250 238 233 238 258
Wind_Speed
10 8 28 10 12 24 16 27 25 19 24 19 11 9 21 21 21 22 22 19 20 21 21 9 22 23 22 17 12 14 16 19 13 17 20 19 23 34 35 34 34 34 35
11 29 8 9 17 24 27 29 28 10 28 28 17 27 22 27 27 25 23 23 23 21 8 11 23 9 10 14 21 21 18 16 20 22 19 23 23 24 27 30 34 35 37
18 11 30 10 10 8 24 26 29 25 29 23 16 24 25 28 23 28 28 25 16 22 12 23 22 9 23 14 20 18 26 21 13 10 10 21 26 28 25 28 30 28 37
12 15 23 20 13 20 11 17 28 23 29 30 19 29 26 13 29 29 25 29 29 27 13 21 21 24 24 22 23 26 12 24 28 27 11 11 10 11 30 18 36 31 24
16 15 14 14 14 16 31 22 29 30 19 32 22 31 22 30 29 33 32 33 33 30 26 25 26 27 29 21 27 21 9 27 11 16 8 28 23 12 15 12 15 19 33
25 17 18 17 15 29 16 17 34 33 30 19 36 32 24 33 29 35 37 34 34 36 33 33 31 29 8 19 12 17 16 24 32 9 8 9 31 30 31 33 34 16 30
25 23 20 20 23 17 17 22 19 31 36 33 37 36 38 40 34 34 36 40 35 39 38 25 34 32 32 30 30 29 22 25 17 18 27 10 18 24 13 13 34 34 34
23 24 24 22 19 20 19 20 38 25 21 21 42 39 33 45 41 34 35 39 41 38 39 41 40 38 32 27 35 36 34 34 32 28 12 23 25 38 36 17 27 37 20
32 29 24 22 22 22 23 43 26 42 36 40 24 47 45 38 44 38 40 27 41 39 40 37 40 39 35 34 31 39 40 33 38 23 17 19 21 42 36 38 36 39 39
45 28 27 24 25 26 27 25 22 21 22 47 27 25 24 51 44 43 43 33 44 43 42 37 33 34 34 35 34 41 43 42 42 41 40 31 41 41 17 19 39 30 35
30 47 46 32 28 48 31 26 23 25 26 43 34 37 27 46 51 50 48 49 30 43 44 39 41 43 41 39 39 40 36 40 17 39 16 20 21 29 24 37 47 47 22
33 41 32 49 49 31 29 32 26 27 28 38 53 38 27 37 56 31 53 44 47 43 50 40 40 41 41 40 44 43 45 45 43 43 38 29 47 33 50 50 51 49 38
48 49 54 53 34 32 30 28 29 29 56 54 63 59 39 46 36 48 45 40 48 45 45 44 49 44 45 44 45 40 19 48 49 50 48 48 52 27 47 47 43 27 52
31 34 37 34 39 53 59 40 31 63 59 62 67 63 35 44 45 46 59 50 50 59 65 50 52 57 53 49 51 51 51 53 55 58 54 29 58 58 34 53 52 35 52
52 48 34 47 32 40 38 36 55 53 40 48 40 36 70 66 58 70 54 68 50 62 56 70 68 62 52 64 65 60 70 61 62 41 55 40 32 62 52 63 49 61 54
62 60 66 61 60 61 64 67 64 68 69 70 70 67 69 43 51 63 66 62 73 60 57 62 65 62 59 59 60 62 63 64 41 49 44 48 35 38 54 50 39 48 48
44 21 31 27 33 66 69 69 69 71 67 71 52 48 48 72 68 57 64 63 62 62 63 64 67 64 64 64 66 72 45 65 36 47 49 32 39 70 70 57 56 49 58
45 49 39 37 30 32 31 35 40 40 42 42 47 59 64 69 52 68 61 63 64 66 65 67 70 71 61 40 64 62 37 38 34 39 45 52 51 57 56 56 58 62 71
61 26 57 43 32 37 58 45 46 56 47 51 72 64 72 60 61 67 67 67 69 71 65 67 74 74 63 69 29 29 46 59 43 51 55 56 55 56 67 67 69 71 74
62 65 68 72 72 72 73 63 56 62 51 66 61 52 40 65 73 78 57 43 68 61 57 58 44 16 29 37 37 54 53 51 54 47 64 67 69 71 68 67 68 68 69
63 67 70 70 70 73 73 69 71 73 67 65 62 66 37 64 82 80 45 53 34 33 58 51 49 52 55 58 50 64 67 45 61 56 72 69 76 51 49 52 49 46 49
63 62 64 68 64 69 74 71 67 67 67 79 40 82 83 83 63 58 53 39 43 46 48 55 36 52 56 41 43 46 67 45 66 48 46 45 46 52 54 53 48 46 40
61 60 60 63 63 64 66 70 76 78 78 78 80 79 66 62 59 56 46 47 35 36 38 48 55 41 41 42 44 45 45 44 46 40 41 43 42 47 52 53 52 51 45
53 59 61 60 59 64 69 73 77 80 81 75 81 52 45 37 38 58 48 50 62 36 36 38 37 48 41 37 37 38 43 45 45 45 40 44 44 43 43 53 56 48 54
56 60 59 62 69 73 74 78 79 80 76 71 57 60 50 50 64 66 58 33 31 43 38 36 37 38 39 40 41 42 42 47 50 54 53 46 47 49 49 47 43 43 43
60 63 64 72 73 74 77 78 76 77 74 55 57 61 40 66 43 48 46 37 50 46 40 39 40 41 42 43 45 51 52 50 53 54 56 56 52 50 55 51 50 50 48
Wind_Direction
215 212 255 230 253 263 272 272 276 274 279 284 272 298 292 284 291 292 294 296 300 304 302 293 297 298 299 303 333 329 309 306 338 326 283 297 282 265 265 268 270 269 269
211 256 211 238 258 263 268 271 269 259 275 278 280 285 289 290 289 291 290 289 291 292 285 301 294 309 318 311 298 299 306 320 292 308 328 293 293 292 274 273 268 270 270
240 221 256 233 246 257 257 260 262 284 276 272 275 285 287 284 287 288 289 289 299 291 293 289 288 309 287 311 300 306 290 301 325 343 356 309 287 278 278 276 275 281 270
217 231 253 275 252 257 265 267 273 274 275 277 273 280 282 293 283 284 288 287 286 283 290 286 287 287 287 291 298 295 311 294 289 287 309 333 335 342 274 294 267 273 285
224 227 224 231 233 249 261 265 276 275 265 280 287 278 287 280 282 281 283 284 283 284 282 283 281 283 283 292 288 297 280 292 292 297 309 289 290 321 293 325 328 310 282
247 232 233 232 237 267 244 254 275 277 282 277 275 283 284 277 280 281 282 283 285 283 282 280 281 281 259 297 290 292 288 289 289 304 285 317 290 289 290 280 281 318 280
242 231 235 240 252 241 249 261 258 276 279 278 277 280 279 275 284 284 282 280 282 281 280 286 280 280 280 282 284 284 284 287 286 296 290 304 301 293 315 324 287 286 282
235 234 235 236 243 246 246 251 281 276 270 278 276 281 287 279 279 287 282 281 276 282 280 279 279 281 282 280 281 281 282 283 283 285 292 289 290 287 285 322 294 284 326
247 247 243 243 244 247 248 274 265 277 280 277 274 278 280 284 278 285 281 288 281 280 277 280 281 282 286 283 276 286 284 283 284 284 297 301 298 284 287 284 287 285 285
254 248 248 245 245 247 251 255 261 271 275 280 267 270 275 280 284 282 281 289 280 280 279 279 279 281 288 288 288 287 285 286 285 284 285 283 283 286 307 307 287 291 282
251 261 266 255 249 272 252 258 264 264 267 284 272 273 272 283 284 284 283 283 275 284 283 283 279 279 285 286 279 284 286 285 296 284 293 298 299 288 290 284 279 277 288
249 260 250 271 272 253 258 266 257 263 268 277 281 277 273 277 286 273 288 282 283 280 285 284 286 285 284 279 279 283 283 279 276 275 279 296 273 289 274 274 275 275 281
268 264 266 267 252 255 256 255 257 261 280 281 284 284 273 285 270 286 286 276 287 290 287 284 283 274 283 276 282 280 287 276 275 276 274 275 277 288 278 274 278 288 274
250 252 255 253 258 272 274 268 258 278 281 282 286 286 263 285 287 287 289 287 287 290 288 285 284 284 283 275 281 273 275 276 279 279 277 280 276 277 283 277 275 283 277
268 264 256 267 270 258 260 261 272 274 270 279 268 264 292 291 288 289 277 291 268 286 279 288 287 283 274 283 283 283 283 284 282 278 280 279 277 277 281 278 284 274 280
263 270 274 274 274 276 275 275 277 278 283 281 286 290 287 266 272 285 291 285 287 293 286 288 287 285 283 282 281 280 279 280 278 283 276 278 283 285 288 284 287 293 291
255 269 274 279 271 273 273 276 277 279 286 283 272 268 263 287 288 266 286 293 292 288 287 287 288 283 279 278 280 286 280 280 274 283 284 290 283 279 278 294 297 293 294
265 260 263 271 273 279 273 275 269 272 270 270 264 283 288 288 269 295 292 282 282 283 283 283 284 283 281 276 283 280 277 279 282 280 284 289 289 293 291 295 296 296 277
267 262 270 271 269 272 274 271 269 276 271 274 287 278 289 299 280 276 278 280 283 283 280 281 283 285 284 284 283 290 278 277 286 286 290 290 291 290 291 290 289 284 271
267 268 270 271 272 275 276 282 271 279 267 280 287 283 277 283 285 291 277 281 293 288 294 279 280 278 284 287 283 282 281 284 285 289 286 287 288 290 280 277 275 273 271
266 269 270 273 277 278 280 283 284 285 289 295 284 277 287 287 294 296 273 274 288 293 274 284 290 289 289 291 289 282 280 288 289 288 283 285 287 290 292 292 294 287 279
269 272 274 274 280 282 282 283 285 290 290 282 281 290 293 296 297 296 295 296 289 289 286 284 296 287 287 297 298 295 286 293 288 293 295 294 291 290 288 288 288 285 284
271 277 279 282 281 283 283 280 279 281 282 286 290 296 296 295 294 296 301 296 307 303 302 295 291 298 301 302 301 302 303 301 292 303 298 298 296 290 288 290 288 286 283
274 278 280 281 280 278 279 279 280 282 286 294 294 303 305 308 307 296 301 297 295 307 312 308 309 296 302 303 307 305 303 303 300 298 296 295 302 300 301 286 285 284 287
270 277 274 274 272 272 276 278 280 285 294 298 298 296 294 293 290 292 296 304 315 299 304 306 305 303 300 300 303 305 300 299 303 301 303 297 293 297 302 292 304 303 287
268 269 273 269 273 276 276 280 288 289 303 296 296 288 294 290 295 298 299 303 300 299 304 306 308 308 307 306 295 293 292 291 291 301 304 294 304 310 310 298 293 294 297